N1HQ Weather Reports


time (UTC)temp
F
wind
direction
speed
knots
gust
knots
rain 1hr
in
rain 24hr
in
rain mn
in
humidity
%
barometer
mb
20260506210302 83 182 2.6 5.2 0.00 0.00 0.00 74 1012.7
20260506205812 83 189 2.6 8.7 0.00 0.00 0.00 73 1012.9
20260506205405 83 216 2.6 7.0 0.00 0.00 0.00 76 1013.1
20260506204918 83 149 3.5 6.1 0.00 0.00 0.00 78 1013.1
20260506204444 82 148 3.5 6.1 0.00 0.00 0.00 77 1013.2
20260506204040 82 237 3.5 8.7 0.00 0.00 0.00 78 1013.1
20260506203552 83 230 3.5 9.6 0.00 0.00 0.00 78 1013.1
20260506203112 83 169 2.6 7.0 0.00 0.00 0.00 77 1013.0
20260506202650 83 125 2.6 7.0 0.00 0.00 0.00 77 1013.2
20260506202222 83 161 3.5 6.1 0.00 0.00 0.00 79 1013.3
20260506201807 82 150 3.5 7.8 0.00 0.00 0.00 79 1013.4
20260506201327 83 129 3.5 7.0 0.00 0.00 0.00 77 1013.6
20260506200912 83 165 3.5 8.7 0.00 0.00 0.00 77 1013.6
20260506200413 82 107 3.5 11.3 0.00 0.00 0.00 76 1013.8
20260506195942 83 228 2.6 7.0 0.00 0.00 0.00 79 1013.9
20260506194127 83 144 3.5 7.0 0.00 0.00 0.00 78 1014.0
20260506193642 82 175 3.5 7.0 0.00 0.00 0.00 79 1013.9
20260506174053 82 140 3.5 8.7 0.00 0.00 0.00 79 1014.9
20260506173602 82 138 2.6 6.1 0.00 0.00 0.00 81 1014.9
20260506173147 82 133 2.6 6.1 0.00 0.00 0.00 80 1015.0
20260506172728 82 144 2.6 6.1 0.00 0.00 0.00 81 1015.1
20260506172315 82 157 2.6 7.8 0.00 0.00 0.00 82 1015.1
20260506171827 82 148 2.6 7.0 0.00 0.00 0.00 82 1015.2
20260506171342 82 148 2.6 6.1 0.00 0.00 0.00 80 1015.2
20260506170855 82 229 2.6 8.7 0.00 0.00 0.00 82 1015.1
20260506170407 82 233 2.6 6.1 0.00 0.00 0.00 82 1015.1
20260506170002 81 141 2.6 8.7 0.00 0.00 0.00 82 1015.2
20260506165533 82 245 2.6 6.1 0.00 0.00 0.00 83 1015.2
20260506165127 82 152 2.6 7.0 0.00 0.00 0.00 82 1015.1
20260506164653 82 148 2.6 6.1 0.00 0.00 0.00 82 1015.1
20260506164212 82 167 2.6 6.1 0.00 0.00 0.00 82 1015.0
20260506163737 82 169 2.6 7.0 0.00 0.00 0.00 82 1015.1
20260506163327 82 155 2.6 7.0 0.00 0.00 0.00 82 1015.1
20260506162847 82 150 1.7 5.2 0.00 0.00 0.00 82 1015.1
20260506162442 81 163 2.6 5.2 0.00 0.00 0.00 84 1015.0
20260506162035 81 202 2.6 6.1 0.00 0.00 0.00 84 1014.9
20260506161626 80 159 3.5 7.0 0.00 0.00 0.00 85 1014.9
20260506161207 80 218 2.6 9.6 0.00 0.00 0.00 84 1014.8
20260506160708 81 155 2.6 7.0 0.00 0.00 0.00 84 1014.7
20260506160217 81 169 2.6 7.0 0.00 0.00 0.00 85 1014.6
20260506155747 81 169 2.6 7.8 0.00 0.00 0.00 85 1014.6
20260506155308 80 131 2.6 9.6 0.00 0.00 0.00 84 1014.7
20260506154837 80 175 2.6 6.1 0.00 0.00 0.00 87 1014.8
20260506154418 80 150 2.6 6.1 0.00 0.00 0.00 86 1014.7
20260506153507 79 226 3.5 7.8 0.00 0.00 0.00 86 1014.6
20260506153027 80 209 2.6 6.1 0.00 0.00 0.00 85 1014.6
20260506152607 80 211 2.6 7.8 0.00 0.00 0.00 86 1014.6
20260506152120 80 265 2.6 7.0 0.00 0.00 0.00 87 1014.6
20260506151628 80 252 2.6 6.1 0.00 0.00 0.00 86 1014.5
20260506151143 79 164 2.6 7.0 0.00 0.00 0.00 87 1014.4
20260506150732 79 167 3.5 7.8 0.00 0.00 0.00 87 1014.5
20260506150303 79 196 2.6 8.7 0.00 0.00 0.00 88 1014.4
20260506145810 79 256 2.6 4.3 0.00 0.00 0.00 87 1014.3
20260506145344 78 190 3.5 7.0 0.00 0.00 0.00 87 1014.3
20260506144926 78 159 2.6 7.8 0.00 0.00 0.00 88 1014.3
20260506144435 79 209 1.7 5.2 0.00 0.00 0.00 87 1014.2
20260506144002 78 225 2.6 5.2 0.00 0.00 0.00 89 1014.2
20260506142612 77 133 2.6 6.1 0.00 0.00 0.00 89 1014.2
20260506142125 77 140 2.6 6.1 0.00 0.00 0.00 90 1014.1
20260506141703 77 135 2.6 7.8 0.00 0.00 0.00 90 1014.2
20260506141239 77 151 2.6 7.0 0.00 0.00 0.00 91 1014.0
20260506140812 77 136 2.6 7.0 0.00 0.00 0.00 91 1014.0
20260506135920 76 146 3.5 8.7 0.00 0.00 0.00 90 1013.9
20260506134555 76 136 3.5 6.1 0.00 0.00 0.00 92 1013.7
20260506134133 76 121 3.5 6.1 0.00 0.00 0.00 93 1013.7
20260506133707 75 159 3.5 8.7 0.00 0.00 0.00 93 1013.6
20260506133239 75 112 2.6 7.0 0.00 0.00 0.00 92 1013.7
20260506132807 75 182 1.7 6.1 0.00 0.00 0.00 94 1013.6
20260506132312 75 236 1.7 5.2 0.00 0.00 0.00 96 1013.5
20260506131832 75 178 2.6 7.0 0.00 0.00 0.00 97 1013.5
20260506131415 74 163 1.7 6.1 0.00 0.00 0.00 97 1013.5
20260506130924 74 142 1.7 5.2 0.00 0.00 0.00 97 1013.4
20260506130515 74 136 1.7 6.1 0.00 0.00 0.00 98 1013.3
20260506125553 73 221 1.7 6.1 0.00 0.00 0.00 98 1013.2
20260506125112 73 162 1.7 4.3 0.00 0.00 0.00 99 1013.3
20260506124712 73 146 1.7 5.2 0.00 0.00 0.00 99 1013.2
20260506124244 73 149 1.7 5.2 0.00 0.00 0.00 10 1012.9
20260506123812 73 170 1.7 5.2 0.00 0.00 0.00 10 1012.9
20260506123352 73 157 1.7 5.2 0.00 0.00 0.00 10 1012.9
20260506122855 73 156 1.7 3.5 0.00 0.00 0.00 10 1012.9
20260506122428 73 160 1.7 5.2 0.00 0.00 0.00 10 1012.7
20260506121049 72 136 1.7 4.3 0.00 0.00 0.00 10 1012.5
20260506120615 72 163 2.6 7.0 0.00 0.00 0.00 10 1012.3
20260506120142 72 161 2.6 7.0 0.00 0.00 0.00 10 1012.2
20260506115205 71 231 1.7 5.2 0.00 0.00 0.00 10 1012.0
20260506114725 71 165 1.7 5.2 0.00 0.00 0.00 10 1012.1
20260506113357 71 149 0.9 5.2 0.00 0.00 0.00 10 1011.9
20260506112438 71 119 0.0 3.5 0.00 0.00 0.00 10 1011.8
20260506111548 71 135 0.0 1.7 0.00 0.00 0.00 10 1011.6
20260506111102 71 139 0.0 2.6 0.00 0.00 0.00 10 1011.6
20260506110623 71 146 0.0 1.7 0.00 0.00 0.00 10 1011.5
20260506110138 71 147 0.0 1.7 0.00 0.00 0.00 10 1011.5
20260506105722 70 148 0.0 0.9 0.00 0.00 0.00 10 1011.5
20260506105241 70 145 0.0 1.7 0.00 0.00 0.00 10 1011.4
20260506104835 70 123 0.0 0.9 0.00 0.00 0.00 10 1011.5
20260506103903 71 115 0.0 1.7 0.00 0.00 0.00 10 1011.5
20260506103002 71 144 0.0 0.9 0.00 0.00 0.00 10 1011.3
20260506102542 71 146 0.0 0.0 0.00 0.00 0.00 10 1011.3
20260506102124 71 146 0.0 1.7 0.00 0.00 0.00 10 1011.2
20260506101702 71 134 0.9 1.7 0.00 0.00 0.00 10 1011.3
20260506101303 71 138 0.9 1.7 0.00 0.00 0.00 10 1011.2
20260506095925 71 136 0.0 0.9 0.00 0.00 0.00 10 1011.2
20260506095442 71 136 0.0 1.7 0.00 0.00 0.00 10 1011.3
20260506094957 71 134 0.0 0.9 0.00 0.00 0.00 10 1011.3
20260506094530 71 123 0.0 0.9 0.00 0.00 0.00 10 1011.3
20260506093615 71 144 0.0 0.9 0.00 0.00 0.00 10 1011.2
20260506093206 71 137 0.0 0.9 0.00 0.00 0.00 10 1011.3
20260506092717 71 137 0.0 0.9 0.00 0.00 0.00 10 1011.4
20260506092218 71 137 0.0 0.9 0.00 0.00 0.00 10 1011.5
20260506091243 71 137 0.9 4.3 0.00 0.00 0.00 10 1011.3
20260506090803 71 143 0.0 0.9 0.00 0.00 0.00 10 1011.3
20260506090359 71 128 0.0 0.9 0.00 0.00 0.00 10 1011.4
20260506085915 71 128 0.0 0.9 0.00 0.00 0.00 10 1011.6
20260506085513 71 128 0.0 1.7 0.00 0.00 0.00 10 1011.5
20260506084544 71 119 0.0 1.7 0.00 0.00 0.00 10 1011.5
20260506084048 71 148 0.0 1.7 0.00 0.00 0.00 10 1011.6
20260506083155 71 159 0.0 0.9 0.00 0.00 0.00 10 1011.6
20260506082728 71 151 0.0 0.9 0.00 0.00 0.00 10 1011.5
20260506082233 71 151 0.0 3.5 0.00 0.00 0.00 10 1011.6
20260506081353 71 148 0.0 0.9 0.00 0.00 0.00 10 1011.8
20260506080921 71 135 0.0 1.7 0.00 0.00 0.00 10 1011.9
20260506073508 71 175 0.0 1.7 0.00 0.00 0.00 10 1011.9
20260506073022 71 142 0.0 1.7 0.00 0.00 0.00 10 1011.7
20260506072528 71 155 0.0 1.7 0.00 0.00 0.00 10 1011.8
20260506072029 71 112 0.0 1.7 0.00 0.00 0.00 10 1011.7
20260506071613 71 167 0.0 0.9 0.00 0.00 0.00 10 1011.7
20260506071132 71 164 0.0 0.9 0.00 0.00 0.00 10 1011.9
20260506070716 71 164 0.9 1.7 0.00 0.00 0.00 10 1011.9
20260506070241 71 162 0.9 4.3 0.00 0.00 0.00 10 1011.7
20260506061350 71 213 0.0 1.7 0.00 0.00 0.00 10 1012.2
20260506060433 71 155 0.9 4.3 0.00 0.00 0.00 10 1012.2
20260506043607 71 148 0.0 0.9 0.00 0.00 0.00 99 1013.0
20260506043156 71 148 0.0 1.7 0.00 0.00 0.00 99 1012.9
20260506042706 71 150 0.0 1.7 0.00 0.00 0.00 10 1013.0
20260506042301 71 168 0.0 1.7 0.00 0.00 0.00 99 1013.2
20260506041840 71 130 0.0 1.7 0.00 0.00 0.00 99 1013.1
20260506041347 71 156 0.0 3.5 0.00 0.00 0.00 99 1013.3
20260506040902 72 149 0.0 3.5 0.00 0.00 0.00 99 1013.2
20260506040458 72 157 0.9 3.5 0.00 0.00 0.00 99 1013.3
20260506040020 72 156 0.0 1.7 0.00 0.00 0.00 99 1013.3
20260506035537 72 146 0.0 1.7 0.00 0.00 0.00 99 1013.4
20260506035046 72 248 0.0 0.9 0.00 0.00 0.00 99 1013.4
20260506034617 72 173 0.9 3.5 0.00 0.00 0.00 99 1013.3
20260506034132 72 211 0.0 3.5 0.00 0.00 0.00 99 1013.3
20260506033707 72 137 0.0 3.5 0.00 0.00 0.00 98 1013.2
20260506033222 72 140 0.9 1.7 0.00 0.00 0.00 98 1013.2
20260506032732 72 157 0.9 3.5 0.00 0.00 0.00 98 1013.0
20260506032235 72 144 0.9 2.6 0.00 0.00 0.00 98 1013.1
20260506031754 72 105 0.9 1.7 0.00 0.00 0.00 98 1013.1
20260506031307 72 140 0.9 4.3 0.00 0.00 0.00 98 1013.0
20260506030357 72 162 0.9 3.5 0.00 0.00 0.00 98 1013.2
20260506025927 72 149 0.9 3.5 0.00 0.00 0.00 97 1013.2
20260506025515 72 152 0.9 1.7 0.00 0.00 0.00 97 1013.1
20260506025026 72 152 1.7 7.0 0.00 0.00 0.00 97 1013.2
20260506024555 72 99 0.9 7.0 0.00 0.00 0.00 98 1013.3
20260506024110 72 149 0.9 4.3 0.00 0.00 0.00 97 1013.2
20260506023702 72 163 0.9 4.3 0.00 0.00 0.00 97 1013.3
20260506023232 72 169 0.9 3.5 0.00 0.00 0.00 97 1013.2
20260506022832 72 151 0.9 7.0 0.00 0.00 0.00 97 1013.2
20260506022415 72 147 1.7 4.3 0.00 0.00 0.00 97 1013.1
20260506022002 72 124 0.9 7.0 0.00 0.00 0.00 97 1013.0
20260506021602 72 128 0.9 7.0 0.00 0.00 0.00 97 1013.0
20260506021107 72 140 0.0 0.9 0.00 0.00 0.00 96 1013.1
20260506020622 72 144 0.9 0.9 0.00 0.00 0.00 96 1013.2
20260506020202 72 123 0.9 3.5 0.00 0.00 0.00 96 1013.2
20260506015756 72 136 0.9 1.7 0.00 0.00 0.00 96 1013.1
20260506015338 73 234 0.9 4.3 0.00 0.00 0.00 96 1013.0
20260506014907 73 123 0.9 4.3 0.00 0.00 0.00 96 1013.1
20260506014508 73 163 0.9 5.2 0.00 0.00 0.00 95 1013.0
20260506014107 73 161 0.9 3.5 0.00 0.00 0.00 95 1012.8
20260506013617 73 155 1.7 5.2 0.00 0.00 0.00 95 1012.7
20260506013215 73 128 1.7 5.2 0.00 0.00 0.00 95 1012.8
20260506012747 73 155 1.7 5.2 0.00 0.00 0.00 95 1012.8
20260506012253 73 159 1.7 4.3 0.00 0.00 0.00 95 1012.8
20260506011803 73 151 0.9 8.7 0.00 0.00 0.00 95 1012.8
20260506011348 73 136 1.7 5.2 0.00 0.00 0.00 94 1012.8
20260506010917 73 167 1.7 6.1 0.00 0.00 0.00 94 1012.7
20260506010502 73 158 1.7 4.3 0.00 0.00 0.00 94 1012.5
20260506010002 73 139 1.7 4.3 0.00 0.00 0.00 94 1012.7
20260506005527 73 207 1.7 5.2 0.00 0.00 0.00 93 1012.6
20260506005122 73 161 1.7 5.2 0.00 0.00 0.00 93 1012.5
20260506004647 73 144 1.7 5.2 0.00 0.00 0.00 93 1012.6
20260506004212 73 171 1.7 6.1 0.00 0.00 0.00 92 1012.5
20260506003723 73 152 1.7 6.1 0.00 0.00 0.00 92 1012.6
20260506003223 73 158 1.7 6.1 0.00 0.00 0.00 92 1012.4
20260506002757 73 123 1.7 5.2 0.00 0.00 0.00 91 1012.5
20260506002305 73 212 0.9 5.2 0.00 0.00 0.00 91 1012.4
20260506001832 74 129 0.9 4.3 0.00 0.00 0.00 91 1012.3
20260506001332 74 142 1.7 5.2 0.00 0.00 0.00 91 1012.2
20260506000912 74 129 2.6 7.0 0.00 0.00 0.00 90 1012.3
20260506000442 74 157 1.7 7.0 0.00 0.00 0.00 89 1012.2
20260506000017 74 164 1.7 4.3 0.00 0.00 0.00 89 1012.1
20260505235527 75 160 2.6 6.1 0.00 0.00 0.00 88 1012.3
20260505235103 75 148 2.6 7.8 0.00 0.00 0.00 88 1012.4
20260505234617 75 229 2.6 6.1 0.00 0.00 0.00 87 1012.4
20260505234207 75 132 2.6 8.7 0.00 0.00 0.00 87 1012.4
20260505233742 75 155 2.6 8.7 0.00 0.00 0.00 86 1012.4
20260505233307 76 144 2.6 6.1 0.00 0.00 0.00 86 1012.6
20260505232823 76 126 2.6 5.2 0.00 0.00 0.00 85 1012.6
20260505232328 76 141 2.6 7.8 0.00 0.00 0.00 83 1012.5
20260505231833 77 133 3.5 5.2 0.00 0.00 0.00 83 1012.3
20260505231414 76 136 4.3 7.8 0.00 0.00 0.00 82 1012.3
20260505231012 77 162 4.3 9.6 0.00 0.00 0.00 81 1012.3
20260505230606 77 135 3.5 9.6 0.00 0.00 0.00 82 1012.3
20260505230137 77 154 3.5 7.8 0.00 0.00 0.00 81 1012.4
20260505225727 77 143 2.6 7.8 0.00 0.00 0.00 80 1012.3
20260505225315 77 256 2.6 9.6 0.00 0.00 0.00 79 1012.3
20260505224842 78 142 2.6 6.1 0.00 0.00 0.00 79 1012.4
20260505224428 78 140 3.5 7.0 0.00 0.00 0.00 78 1012.4
20260505223946 78 158 2.6 7.8 0.00 0.00 0.00 76 1012.5
20260505223517 78 150 3.5 7.0 0.00 0.00 0.00 76 1012.6
20260505223032 78 148 4.3 11.3 0.00 0.00 0.00 77 1012.5
20260505222627 78 121 4.3 10.4 0.00 0.00 0.00 78 1012.5
20260505222132 79 148 4.3 8.7 0.00 0.00 0.00 74 1012.5
20260505221655 79 163 4.3 10.4 0.00 0.00 0.00 72 1012.5
20260505221222 79 153 4.3 10.4 0.00 0.00 0.00 69 1012.4
20260505220807 79 240 3.5 8.7 0.00 0.00 0.00 71 1012.4
20260505220307 79 159 3.5 8.7 0.00 0.00 0.00 69 1012.4
20260505215852 79 163 3.5 12.2 0.00 0.00 0.00 69 1012.4
20260505215430 80 157 4.3 7.0 0.00 0.00 0.00 69 1012.3
20260505215012 79 141 4.3 7.8 0.00 0.00 0.00 68 1012.3
20260505214554 79 124 4.3 12.2 0.00 0.00 0.00 68 1012.4
20260505214152 79 153 3.5 9.6 0.00 0.00 0.00 67 1012.3
20260505213727 79 148 3.5 9.6 0.00 0.00 0.00 68 1012.3
20260505213322 79 148 4.3 10.4 0.00 0.00 0.00 70 1012.3
20260505212832 79 233 4.3 13.0 0.00 0.00 0.00 71 1012.4
20260505212354 79 178 4.3 8.7 0.00 0.00 0.00 69 1012.6
20260505211922 80 184 3.5 8.7 0.00 0.00 0.00 68 1012.6